Time,TemperatureF,DewpointF,PressureIn,WindDirection,WindDirectionDegrees,WindSpeedMPH,WindSpeedGustMPH,Humidity,HourlyPrecipIn,Conditions,Clouds,dailyrainin,SolarRadiationWatts/m^2,SoftwareType,DateUTC
2014-04-24 00:01:00,73.7,69.3,29.94,WNW,293,0.0,4.0,86,0.00,,,0.00,0.0,WUHU216DAVISVP2,2014-04-24 04:01:00,
2014-04-24 00:06:00,73.6,69.2,29.94,West,279,0.0,4.0,86,0.00,,,0.00,0.0,WUHU216DAVISVP2,2014-04-24 04:06:00,
2014-04-24 00:11:00,73.4,69.0,29.94,WNW,302,0.0,7.0,86,0.00,,,0.00,0.0,WUHU216DAVISVP2,2014-04-24 04:11:00,
2014-04-24 00:16:00,73.0,67.9,29.95,WNW,288,3.0,7.0,84,0.00,,,0.00,0.0,WUHU216DAVISVP2,2014-04-24 04:16:00,
2014-04-24 00:21:00,72.9,67.5,29.95,NW,306,1.0,7.0,83,0.00,,,0.00,0.0,WUHU216DAVISVP2,2014-04-24 04:21:00,
2014-04-24 00:26:00,72.8,67.1,29.95,NW,322,0.0,8.0,82,0.00,,,0.00,0.0,WUHU216DAVISVP2,2014-04-24 04:26:00,
2014-04-24 00:31:00,72.8,67.1,29.95,WNW,303,0.0,8.0,82,0.00,,,0.00,0.0,WUHU216DAVISVP2,2014-04-24 04:31:00,
2014-04-24 00:36:00,72.8,66.7,29.95,WNW,292,1.0,8.0,81,0.00,,,0.00,0.0,WUHU216DAVISVP2,2014-04-24 04:36:00,
2014-04-24 00:41:00,72.8,66.3,29.94,NW,304,1.0,8.0,80,0.00,,,0.00,0.0,WUHU216DAVISVP2,2014-04-24 04:41:00,
2014-04-24 00:46:00,72.8,66.4,29.94,WNW,298,5.0,7.0,80,0.00,,,0.00,0.0,WUHU216DAVISVP2,2014-04-24 04:46:00,
2014-04-24 00:51:00,72.8,66.0,29.94,NW,315,1.0,7.0,79,0.00,,,0.00,0.0,WUHU216DAVISVP2,2014-04-24 04:51:00,
2014-04-24 00:56:00,72.8,66.0,29.94,NNE,24,1.0,7.0,79,0.00,,,0.00,0.0,WUHU216DAVISVP2,2014-04-24 04:56:00,
2014-04-24 01:01:00,72.7,65.6,29.94,North,355,1.0,9.0,78,0.00,,,0.00,0.0,WUHU216DAVISVP2,2014-04-24 05:01:00,
2014-04-24 01:06:00,72.7,65.6,29.94,NW,306,0.0,9.0,78,0.00,,,0.00,0.0,WUHU216DAVISVP2,2014-04-24 05:06:00,
2014-04-24 01:11:00,72.7,65.2,29.94,NW,325,2.0,9.0,77,0.00,,,0.00,0.0,WUHU216DAVISVP2,2014-04-24 05:11:00,
2014-04-24 01:16:00,72.6,65.0,29.94,NW,322,4.0,9.0,77,0.00,,,0.00,0.0,WUHU216DAVISVP2,2014-04-24 05:16:00,
2014-04-24 01:21:00,72.6,65.1,29.94,NNW,337,1.0,7.0,77,0.00,,,0.00,0.0,WUHU216DAVISVP2,2014-04-24 05:21:00,
2014-04-24 01:26:00,72.5,65.0,29.93,NW,317,0.0,7.0,77,0.00,,,0.00,0.0,WUHU216DAVISVP2,2014-04-24 05:26:00,
2014-04-24 01:31:00,72.4,64.9,29.93,NNW,329,0.0,7.0,77,0.00,,,0.00,0.0,WUHU216DAVISVP2,2014-04-24 05:31:00,
2014-04-24 01:36:00,72.3,64.8,29.93,West,277,0.0,5.0,77,0.00,,,0.00,0.0,WUHU216DAVISVP2,2014-04-24 05:36:00,
2014-04-24 01:41:00,72.3,64.8,29.93,NNW,348,1.0,5.0,77,0.00,,,0.00,0.0,WUHU216DAVISVP2,2014-04-24 05:41:00,
2014-04-24 01:46:00,72.2,64.7,29.93,NW,310,0.0,5.0,77,0.00,,,0.00,0.0,WUHU216DAVISVP2,2014-04-24 05:46:00,
2014-04-24 01:51:00,72.1,64.9,29.93,NNW,333,0.0,5.0,78,0.00,,,0.00,0.0,WUHU216DAVISVP2,2014-04-24 05:51:00,
2014-04-24 01:56:00,72.0,64.8,29.92,NNW,340,0.0,5.0,78,0.00,,,0.00,0.0,WUHU216DAVISVP2,2014-04-24 05:56:00,
2014-04-24 02:01:00,72.0,65.2,29.92,NW,318,1.0,5.0,79,0.00,,,0.00,0.0,WUHU216DAVISVP2,2014-04-24 06:01:00,
2014-04-24 02:06:00,71.9,65.1,29.92,NW,320,0.0,3.0,79,0.00,,,0.00,0.0,WUHU216DAVISVP2,2014-04-24 06:06:00,
2014-04-24 02:11:00,71.8,65.0,29.92,NW,321,0.0,3.0,79,0.00,,,0.00,0.0,WUHU216DAVISVP2,2014-04-24 06:11:00,
2014-04-24 02:16:00,71.7,64.9,29.92,NW,316,0.0,3.0,79,0.00,,,0.00,0.0,WUHU216DAVISVP2,2014-04-24 06:16:00,
2014-04-24 02:21:00,71.6,64.8,29.92,NW,320,0.0,3.0,79,0.00,,,0.00,0.0,WUHU216DAVISVP2,2014-04-24 06:21:00,
2014-04-24 02:26:00,71.5,64.7,29.92,NW,308,0.0,2.0,79,0.00,,,0.00,0.0,WUHU216DAVISVP2,2014-04-24 06:26:00,
2014-04-24 02:31:00,71.4,65.0,29.92,NW,323,0.0,2.0,80,0.00,,,0.00,0.0,WUHU216DAVISVP2,2014-04-24 06:31:00,
2014-04-24 02:37:00,71.3,64.9,29.92,NW,306,0.0,3.0,80,0.00,,,0.00,0.0,WUHU216DAVISVP2,2014-04-24 06:37:00,
2014-04-24 02:42:00,71.2,64.7,29.92,NW,308,0.0,3.0,80,0.00,,,0.00,0.0,WUHU216DAVISVP2,2014-04-24 06:42:00,
2014-04-24 02:47:00,71.1,64.7,29.92,NW,306,0.0,3.0,80,0.00,,,0.00,0.0,WUHU216DAVISVP2,2014-04-24 06:47:00,
2014-04-24 02:52:00,71.0,64.6,29.92,NW,326,1.0,3.0,80,0.00,,,0.00,0.0,WUHU216DAVISVP2,2014-04-24 06:52:00,
2014-04-24 02:57:00,70.9,64.5,29.92,NW,304,0.0,3.0,80,0.00,,,0.00,0.0,WUHU216DAVISVP2,2014-04-24 06:57:00,
2014-04-24 03:02:00,70.8,64.8,29.92,NW,321,0.0,3.0,81,0.00,,,0.00,0.0,WUHU216DAVISVP2,2014-04-24 07:02:00,
2014-04-24 03:07:00,70.7,64.7,29.92,NW,317,0.0,3.0,81,0.00,,,0.00,0.0,WUHU216DAVISVP2,2014-04-24 07:07:00,
2014-04-24 03:12:00,70.7,64.7,29.92,NW,312,1.0,3.0,81,0.00,,,0.00,0.0,WUHU216DAVISVP2,2014-04-24 07:12:00,
2014-04-24 03:17:00,70.6,64.6,29.92,NW,313,0.0,3.0,81,0.00,,,0.00,0.0,WUHU216DAVISVP2,2014-04-24 07:17:00,
2014-04-24 03:22:00,70.5,64.4,29.92,NW,313,1.0,3.0,81,0.00,,,0.00,0.0,WUHU216DAVISVP2,2014-04-24 07:22:00,
2014-04-24 03:27:00,70.5,64.4,29.92,NW,314,0.0,3.0,81,0.00,,,0.00,0.0,WUHU216DAVISVP2,2014-04-24 07:27:00,
2014-04-24 03:32:00,70.4,64.7,29.92,NW,316,3.0,3.0,82,0.00,,,0.00,0.0,WUHU216DAVISVP2,2014-04-24 07:32:00,
2014-04-24 03:37:00,70.4,64.7,29.92,NW,325,0.0,3.0,82,0.00,,,0.00,0.0,WUHU216DAVISVP2,2014-04-24 07:37:00,
2014-04-24 03:42:00,70.3,64.6,29.92,NW,325,0.0,3.0,82,0.00,,,0.00,0.0,WUHU216DAVISVP2,2014-04-24 07:42:00,
2014-04-24 03:47:00,70.2,64.5,29.92,NNW,327,0.0,3.0,82,0.00,,,0.00,0.0,WUHU216DAVISVP2,2014-04-24 07:47:00,
2014-04-24 03:52:00,70.1,64.4,29.92,NNW,329,0.0,3.0,82,0.00,,,0.00,0.0,WUHU216DAVISVP2,2014-04-24 07:52:00,
2014-04-24 03:57:00,70.1,64.4,29.92,NW,321,0.0,3.0,82,0.00,,,0.00,0.0,WUHU216DAVISVP2,2014-04-24 07:57:00,
2014-04-24 04:02:00,70.0,64.3,29.92,NW,321,0.0,3.0,82,0.00,,,0.00,0.0,WUHU216DAVISVP2,2014-04-24 08:02:00,
2014-04-24 04:07:00,69.9,64.2,29.92,NW,321,0.0,3.0,82,0.00,,,0.00,0.0,WUHU216DAVISVP2,2014-04-24 08:07:00,
2014-04-24 04:12:00,69.8,64.1,29.92,NW,321,0.0,2.0,82,0.00,,,0.00,0.0,WUHU216DAVISVP2,2014-04-24 08:12:00,
2014-04-24 04:17:00,69.8,64.4,29.92,NW,325,0.0,2.0,83,0.00,,,0.00,0.0,WUHU216DAVISVP2,2014-04-24 08:17:00,
2014-04-24 04:22:00,69.7,64.4,29.92,North,5,1.0,3.0,83,0.00,,,0.00,0.0,WUHU216DAVISVP2,2014-04-24 08:22:00,
2014-04-24 04:27:00,69.6,64.3,29.92,NNW,336,1.0,3.0,83,0.00,,,0.00,0.0,WUHU216DAVISVP2,2014-04-24 08:27:00,
2014-04-24 04:32:00,69.6,64.3,29.92,NNW,337,0.0,3.0,83,0.00,,,0.00,0.0,WUHU216DAVISVP2,2014-04-24 08:32:00,
2014-04-24 04:37:00,69.5,64.2,29.92,NNE,14,3.0,4.0,83,0.00,,,0.00,0.0,WUHU216DAVISVP2,2014-04-24 08:37:00,
2014-04-24 04:42:00,69.5,64.5,29.92,NW,315,0.0,4.0,84,0.00,,,0.00,0.0,WUHU216DAVISVP2,2014-04-24 08:42:00,
2014-04-24 04:47:00,69.4,64.4,29.92,NW,320,0.0,4.0,84,0.00,,,0.00,0.0,WUHU216DAVISVP2,2014-04-24 08:47:00,
2014-04-24 04:52:00,69.4,64.4,29.92,NW,320,0.0,4.0,84,0.00,,,0.00,0.0,WUHU216DAVISVP2,2014-04-24 08:52:00,
2014-04-24 04:57:00,69.3,64.3,29.92,NNW,330,0.0,4.0,84,0.00,,,0.00,0.0,WUHU216DAVISVP2,2014-04-24 08:57:00,
2014-04-24 05:02:00,69.3,64.3,29.92,NNW,331,1.0,4.0,84,0.00,,,0.00,0.0,WUHU216DAVISVP2,2014-04-24 09:02:00,
2014-04-24 05:07:00,69.2,64.2,29.92,NNW,331,0.0,4.0,84,0.00,,,0.00,0.0,WUHU216DAVISVP2,2014-04-24 09:07:00,
2014-04-24 05:12:00,69.2,64.2,29.92,NNW,331,0.0,4.0,84,0.00,,,0.00,0.0,WUHU216DAVISVP2,2014-04-24 09:12:00,
2014-04-24 05:17:00,69.2,64.2,29.92,NNW,331,0.0,2.0,84,0.00,,,0.00,0.0,WUHU216DAVISVP2,2014-04-24 09:17:00,
2014-04-24 05:22:00,69.1,64.1,29.92,NNW,331,0.0,2.0,84,0.00,,,0.00,0.0,WUHU216DAVISVP2,2014-04-24 09:22:00,
2014-04-24 05:27:00,69.0,64.0,29.92,NNW,331,0.0,2.0,84,0.00,,,0.00,0.0,WUHU216DAVISVP2,2014-04-24 09:27:00,